Location: Ward Pound Ridge Reservation
(41.2500°N, 73.6000°W)
Time: 19:45:49
(UTC-04:00)

Tiangong 1 - Pass Details

Date: 11 October 2017
Orbit: 293 x 320 km, 42.8° (Epoch: 19 October)

Event Time Altitude Azimuth Distance (km) Brightness Sun altitude
Rises 19:32:09 0° 280° (W) 2,041 6.6 -14.5°
Reaches altitude 10° 19:34:10 10° 283° (WNW) 1,205 4.9 -14.8°
Maximum altitude 19:36:51 66° 8° (N) 342 0.7 -15.3°
Enters shadow 19:37:19 51° 64° (ENE) 399 0.7 -15.4°
